カタログに戻る

COSMOS 1275 DEB

運用中PO
NORAD 12728·DEBRIS·🇷🇺 Russia

打ち上げ Jun 4, 1981 から Plesetsk Cosmodrome

Loading…

次のパス (今後24時間)

TLE

最新Source: Space-Track

元期: Sep 14, 2026, 18:38 UTC

1 12728U 81053BV  26257.77695247  .00000379  00000-0  35856-3 0  9995
2 12728  82.8105  12.1590 0053386 314.8170 208.5461 13.78138612250635

AllMySatでCOSMOS 1275 DEBをリアルタイム追跡

Download on the App Store